,,Stat6,,Stat2,,Stat8,,Stat9,,Stat10,,Wind1,,Wind1
time,status,PA1M_AVG,status,PR1M_SUM,status,RH1M_AVG,status,SR1M_AVG,status,TA1M_AVG,status,W1dAve1m,status,W1sAve1m
2009-03-03, 00:00:00,VALID,916.831,VALID,0,VALID,100,VALID,0.0169808,VALID,21.2452,VALID,302,VALID,0
2009-03-03, 00:01:00,VALID,916.824,VALID,0,VALID,100,VALID,0.0169808,VALID,21.2284,VALID,302,VALID,0
2009-03-03, 00:02:00,VALID,916.833,VALID,0,VALID,100,VALID,0.0169808,VALID,21.2181,VALID,309,VALID,0
2009-03-03, 00:03:00,VALID,916.839,VALID,0,VALID,100,VALID,0.0339617,VALID,21.1794,VALID,10,VALID,0
2009-03-03, 00:04:00,VALID,916.836,VALID,0,VALID,100,VALID,0.0339617,VALID,21.1045,VALID,14,VALID,0
2009-03-03, 00:05:00,VALID,916.863,VALID,0,VALID,100,VALID,0,VALID,21.0891,VALID,29,VALID,0
2009-03-03, 00:06:00,VALID,916.878,VALID,0,VALID,100,VALID,0,VALID,21.0561,VALID,45,VALID,0
2009-03-03, 00:07:00,VALID,916.907,VALID,0,VALID,100,VALID,0.0509425,VALID,21.0266,VALID,45,VALID,0
2009-03-03, 00:08:00,VALID,916.929,VALID,0,VALID,100,VALID,-0.0509425,VALID,21.0517,VALID,45,VALID,0
2009-03-03, 00:09:00,VALID,916.925,VALID,0,VALID,100,VALID,-0.0509425,VALID,21.0577,VALID,45,VALID,0
2009-03-03, 00:10:00,VALID,916.924,VALID,0,VALID,100,VALID,-0.0509425,VALID,21.0774,VALID,45,VALID,0
2009-03-03, 00:11:00,VALID,916.9,VALID,0,VALID,100,VALID,-0.0509425,VALID,21.0772,VALID,45,VALID,0
2009-03-03, 00:12:00,VALID,916.85,VALID,0,VALID,100,VALID,-0.0509425,VALID,21.0901,VALID,45,VALID,0
2009-03-03, 00:13:00,VALID,916.823,VALID,0,VALID,100,VALID,-0.0509425,VALID,21.0642,VALID,45,VALID,0
2009-03-03, 00:14:00,VALID,916.795,VALID,0,VALID,100,VALID,-0.0509425,VALID,21.0355,VALID,45,VALID,0
2009-03-03, 00:15:00,VALID,916.79,VALID,0,VALID,100,VALID,-0.0339617,VALID,21.0217,VALID,45,VALID,0
2009-03-03, 00:16:00,VALID,916.791,VALID,0,VALID,100,VALID,-0.0509425,VALID,21.032,VALID,45,VALID,0
2009-03-03, 00:17:00,VALID,916.807,VALID,0,VALID,100,VALID,-0.0339617,VALID,21.002,VALID,45,VALID,0
2009-03-03, 00:18:00,VALID,916.847,VALID,0,VALID,100,VALID,-0.0509425,VALID,20.9665,VALID,45,VALID,0
2009-03-03, 00:19:00,VALID,916.857,VALID,0,VALID,100,VALID,-0.0339617,VALID,20.9668,VALID,45,VALID,0
2009-03-03, 00:20:00,VALID,916.868,VALID,0,VALID,100,VALID,-0.0339617,VALID,20.9568,VALID,45,VALID,0
2009-03-03, 00:21:00,VALID,916.873,VALID,0,VALID,100,VALID,-0.0169808,VALID,20.9281,VALID,45,VALID,0
2009-03-03, 00:22:00,VALID,916.872,VALID,0,VALID,100,VALID,-0.0509425,VALID,20.8699,VALID,44,VALID,0
2009-03-03, 00:23:00,VALID,916.871,VALID,0,VALID,100,VALID,-0.0509425,VALID,20.8334,VALID,44,VALID,0
2009-03-03, 00:24:00,VALID,916.865,VALID,0,VALID,100,VALID,-0.0169808,VALID,20.8075,VALID,42,VALID,0
2009-03-03, 00:25:00,VALID,916.835,VALID,0,VALID,100,VALID,-0.0169808,VALID,20.8015,VALID,34,VALID,0
2009-03-03, 00:26:00,VALID,916.837,VALID,0,VALID,100,VALID,-0.0169808,VALID,20.7853,VALID,34,VALID,0
2009-03-03, 00:27:00,VALID,916.821,VALID,0,VALID,100,VALID,-0.0169808,VALID,20.7883,VALID,34,VALID,0
2009-03-03, 00:28:00,VALID,916.809,VALID,0,VALID,100,VALID,0,VALID,20.8137,VALID,34,VALID,0
2009-03-03, 00:29:00,VALID,916.808,VALID,0,VALID,100,VALID,-0.0679233,VALID,20.8399,VALID,25,VALID,0
2009-03-03, 00:30:00,VALID,916.815,VALID,0,VALID,100,VALID,-0.0509425,VALID,20.8662,VALID,22,VALID,0
2009-03-03, 00:31:00,VALID,916.797,VALID,0,VALID,100,VALID,-0.0169808,VALID,20.8821,VALID,22,VALID,0
2009-03-03, 00:32:00,VALID,916.787,VALID,0,VALID,100,VALID,-0.0509425,VALID,20.8919,VALID,22,VALID,0
2009-03-03, 00:33:00,VALID,916.754,VALID,0,VALID,100,VALID,-0.0679233,VALID,20.9254,VALID,20,VALID,0
2009-03-03, 00:34:00,VALID,916.734,VALID,0,VALID,100,VALID,-0.0509425,VALID,20.9376,VALID,20,VALID,0
2009-03-03, 00:35:00,VALID,916.701,VALID,0,VALID,100,VALID,-0.0339617,VALID,20.937,VALID,20,VALID,0
2009-03-03, 00:36:00,VALID,916.672,VALID,0,VALID,100,VALID,-0.0509425,VALID,20.9473,VALID,20,VALID,0
2009-03-03, 00:37:00,VALID,916.684,VALID,0,VALID,100,VALID,-0.0509425,VALID,20.9606,VALID,20,VALID,0
2009-03-03, 00:38:00,VALID,916.68,VALID,0,VALID,100,VALID,-0.0849042,VALID,20.9576,VALID,20,VALID,0
2009-03-03, 00:39:00,VALID,916.668,VALID,0,VALID,100,VALID,-0.0169808,VALID,20.9308,VALID,20,VALID,0
2009-03-03, 00:40:00,VALID,916.684,VALID,0,VALID,100,VALID,-0.0509425,VALID,20.9081,VALID,20,VALID,0
2009-03-03, 00:41:00,VALID,916.67,VALID,0,VALID,100,VALID,-0.0169808,VALID,20.9278,VALID,20,VALID,0
2009-03-03, 00:42:00,VALID,916.669,VALID,0,VALID,100,VALID,-0.0679233,VALID,20.9513,VALID,26,VALID,0
2009-03-03, 00:43:00,VALID,916.684,VALID,0,VALID,100,VALID,-0.0339617,VALID,20.957,VALID,34,VALID,0
2009-03-03, 00:44:00,VALID,916.704,VALID,0,VALID,100,VALID,-0.0679233,VALID,20.9538,VALID,38,VALID,0
2009-03-03, 00:45:00,VALID,916.726,VALID,0,VALID,100,VALID,-0.0679233,VALID,20.9573,VALID,42,VALID,0
2009-03-03, 00:46:00,VALID,916.708,VALID,0,VALID,100,VALID,-0.0509425,VALID,20.9281,VALID,52,VALID,0
2009-03-03, 00:47:00,VALID,916.682,VALID,0,VALID,100,VALID,-0.0339617,VALID,20.8951,VALID,60,VALID,0
2009-03-03, 00:48:00,VALID,916.635,VALID,0,VALID,100,VALID,-0.0339617,VALID,20.8432,VALID,60,VALID,0
2009-03-03, 00:49:00,VALID,916.59,VALID,0,VALID,100,VALID,-0.0509425,VALID,20.8467,VALID,60,VALID,0
2009-03-03, 00:50:00,VALID,916.564,VALID,0,VALID,100,VALID,-0.0339617,VALID,20.8302,VALID,60,VALID,0
2009-03-03, 00:51:00,VALID,916.546,VALID,0,VALID,100,VALID,-0.0169808,VALID,20.8237,VALID,60,VALID,0
2009-03-03, 00:52:00,VALID,916.528,VALID,0,VALID,100,VALID,-0.0679233,VALID,20.8402,VALID,60,VALID,0
2009-03-03, 00:53:00,VALID,916.483,VALID,0,VALID,100,VALID,-0.0169808,VALID,20.8664,VALID,60,VALID,0
2009-03-03, 00:54:00,VALID,916.435,VALID,0,VALID,100,VALID,-0.0169808,VALID,20.8856,VALID,60,VALID,0
2009-03-03, 00:55:00,VALID,916.399,VALID,0,VALID,100,VALID,-0.0169808,VALID,20.9146,VALID,60,VALID,0
2009-03-03, 00:56:00,VALID,916.346,VALID,0,VALID,100,VALID,-0.0339617,VALID,20.9473,VALID,60,VALID,0
2009-03-03, 00:57:00,VALID,916.321,VALID,0,VALID,100,VALID,-0.0509425,VALID,20.9698,VALID,58,VALID,0
2009-03-03, 00:58:00,VALID,916.292,VALID,0,VALID,100,VALID,-0.0679233,VALID,20.9906,VALID,31,VALID,0
2009-03-03, 00:59:00,VALID,916.246,VALID,0,VALID,100,VALID,-0.0679233,VALID,20.9641,VALID,16,VALID,0.144531
2009-03-03, 01:00:00,VALID,916.211,VALID,0,VALID,100,VALID,-0.0679233,VALID,20.9405,VALID,1,VALID,0
2009-03-03, 01:01:00,VALID,916.183,VALID,0,VALID,100,VALID,-0.0509425,VALID,20.9541,VALID,21,VALID,0.00090843
2009-03-03, 01:02:00,VALID,916.154,VALID,0,VALID,100,VALID,-0.0339617,VALID,20.947,VALID,18,VALID,0
2009-03-03, 01:03:00,VALID,916.138,VALID,0,VALID,100,VALID,-0.0679233,VALID,20.9538,VALID,9,VALID,0
2009-03-03, 01:04:00,VALID,916.105,VALID,0,VALID,100,VALID,-0.0509425,VALID,20.97,VALID,275,VALID,0
2009-03-03, 01:05:00,VALID,916.066,VALID,0,VALID,100,VALID,-0.0339617,VALID,20.9703,VALID,275,VALID,0
2009-03-03, 01:06:00,VALID,916.042,VALID,0,VALID,100,VALID,-0.0679233,VALID,20.9635,VALID,275,VALID,0
2009-03-03, 01:07:00,VALID,916.02,VALID,0,VALID,100,VALID,-0.0509425,VALID,20.9708,VALID,275,VALID,0
2009-03-03, 01:08:00,VALID,915.996,VALID,0,VALID,100,VALID,-0.118866,VALID,20.9611,VALID,275,VALID,0
2009-03-03, 01:09:00,VALID,915.966,VALID,0,VALID,100,VALID,-0.101885,VALID,20.9608,VALID,285,VALID,0
2009-03-03, 01:10:00,VALID,915.954,VALID,0,VALID,100,VALID,-0.0849042,VALID,20.9443,VALID,2,VALID,0
2009-03-03, 01:11:00,VALID,915.939,VALID,0,VALID,100,VALID,-0.118866,VALID,20.8989,VALID,17,VALID,0
2009-03-03, 01:12:00,VALID,915.908,VALID,0,VALID,100,VALID,-0.0849042,VALID,20.8564,VALID,30,VALID,0
2009-03-03, 01:13:00,VALID,915.874,VALID,0,VALID,100,VALID,-0.118866,VALID,20.8475,VALID,29,VALID,0
2009-03-03, 01:14:00,VALID,915.827,VALID,0,VALID,100,VALID,-0.101885,VALID,20.8145,VALID,25,VALID,0
2009-03-03, 01:15:00,VALID,915.778,VALID,0,VALID,100,VALID,-0.101885,VALID,20.7985,VALID,25,VALID,0
2009-03-03, 01:16:00,VALID,915.738,VALID,0,VALID,100,VALID,-0.101885,VALID,20.7723,VALID,25,VALID,0
2009-03-03, 01:17:00,VALID,915.707,VALID,0,VALID,100,VALID,-0.0849042,VALID,20.769,VALID,25,VALID,0
2009-03-03, 01:18:00,VALID,915.676,VALID,0,VALID,100,VALID,-0.118866,VALID,20.769,VALID,25,VALID,0
2009-03-03, 01:19:00,VALID,915.659,VALID,0,VALID,100,VALID,-0.101885,VALID,20.7755,VALID,25,VALID,0
2009-03-03, 01:20:00,VALID,915.63,VALID,0,VALID,100,VALID,-0.101885,VALID,20.7753,VALID,25,VALID,0
2009-03-03, 01:21:00,VALID,915.597,VALID,0,VALID,100,VALID,-0.101885,VALID,20.7926,VALID,25,VALID,0
2009-03-03, 01:22:00,VALID,915.554,VALID,0,VALID,100,VALID,-0.118866,VALID,20.7823,VALID,25,VALID,0
2009-03-03, 01:23:00,VALID,915.535,VALID,0,VALID,100,VALID,-0.0169808,VALID,20.7712,VALID,25,VALID,0
2009-03-03, 01:24:00,VALID,915.564,VALID,0,VALID,100,VALID,0,VALID,20.7702,VALID,25,VALID,0
2009-03-03, 01:25:00,VALID,915.607,VALID,0,VALID,100,VALID,0.0169808,VALID,20.7572,VALID,25,VALID,0
2009-03-03, 01:26:00,VALID,915.635,VALID,0,VALID,100,VALID,0.0169808,VALID,20.7677,VALID,25,VALID,0
2009-03-03, 01:27:00,VALID,915.668,VALID,0,VALID,100,VALID,0.0339617,VALID,20.7775,VALID,25,VALID,0
2009-03-03, 01:28:00,VALID,915.692,VALID,0,VALID,100,VALID,0.0169808,VALID,20.7707,VALID,25,VALID,0
2009-03-03, 01:29:00,VALID,915.726,VALID,0,VALID,100,VALID,0.0169808,VALID,20.7737,VALID,25,VALID,0
2009-03-03, 01:30:00,VALID,915.762,VALID,0,VALID,100,VALID,0.0169808,VALID,20.7867,VALID,25,VALID,0
2009-03-03, 01:31:00,VALID,915.81,VALID,0,VALID,100,VALID,0.0169808,VALID,20.8164,VALID,345,VALID,0
2009-03-03, 01:32:00,VALID,915.845,VALID,0,VALID,100,VALID,0,VALID,20.8191,VALID,268,VALID,0
2009-03-03, 01:33:00,VALID,915.849,VALID,0,VALID,100,VALID,0,VALID,20.8289,VALID,325,VALID,0
2009-03-03, 01:34:00,VALID,915.859,VALID,0,VALID,100,VALID,0.0169808,VALID,20.8513,VALID,335,VALID,0
2009-03-03, 01:35:00,VALID,915.853,VALID,0,VALID,100,VALID,0,VALID,20.8451,VALID,5,VALID,0
2009-03-03, 01:36:00,VALID,915.86,VALID,0,VALID,100,VALID,0.0339617,VALID,20.8391,VALID,17,VALID,0
2009-03-03, 01:37:00,VALID,915.859,VALID,0,VALID,100,VALID,0.0169808,VALID,20.8519,VALID,38,VALID,0
2009-03-03, 01:38:00,VALID,915.856,VALID,0,VALID,100,VALID,0,VALID,20.8483,VALID,27,VALID,0
2009-03-03, 01:39:00,VALID,915.833,VALID,0,VALID,100,VALID,0.0339617,VALID,20.8583,VALID,356,VALID,0
2009-03-03, 01:40:00,VALID,915.821,VALID,0,VALID,100,VALID,0.0169808,VALID,20.8513,VALID,19,VALID,0.00713315
2009-03-03, 01:41:00,VALID,915.825,VALID,0,VALID,100,VALID,0.0509425,VALID,20.8481,VALID,350,VALID,0
2009-03-03, 01:42:00,VALID,915.843,VALID,0,VALID,100,VALID,0.0339617,VALID,20.8711,VALID,350,VALID,0
2009-03-03, 01:43:00,VALID,915.86,VALID,0,VALID,100,VALID,0.0509425,VALID,20.8808,VALID,350,VALID,0
2009-03-03, 01:44:00,VALID,915.839,VALID,0,VALID,100,VALID,0.0339617,VALID,20.8735,VALID,7,VALID,0.0606831
2009-03-03, 01:45:00,VALID,915.803,VALID,0,VALID,100,VALID,0.0509425,VALID,20.9,VALID,38,VALID,0.243823
2009-03-03, 01:46:00,VALID,915.772,VALID,0,VALID,100,VALID,0.0509425,VALID,20.8903,VALID,27,VALID,0.077939
2009-03-03, 01:47:00,VALID,915.742,VALID,0,VALID,100,VALID,0.0169808,VALID,20.9005,VALID,22,VALID,0
2009-03-03, 01:48:00,VALID,915.686,VALID,0,VALID,100,VALID,0,VALID,20.8976,VALID,25,VALID,0.284455
2009-03-03, 01:49:00,VALID,915.64,VALID,0,VALID,100,VALID,0.0169808,VALID,20.9038,VALID,21,VALID,0
2009-03-03, 01:50:00,VALID,915.599,VALID,0,VALID,100,VALID,0.0169808,VALID,20.9033,VALID,7,VALID,0
2009-03-03, 01:51:00,VALID,915.566,VALID,0,VALID,100,VALID,0,VALID,20.8938,VALID,18,VALID,0
2009-03-03, 01:52:00,VALID,915.548,VALID,0,VALID,100,VALID,0.0169808,VALID,20.874,VALID,360,VALID,0.0289634
2009-03-03, 01:53:00,VALID,915.548,VALID,0,VALID,100,VALID,0,VALID,20.8708,VALID,5,VALID,0
2009-03-03, 01:54:00,VALID,915.491,VALID,0,VALID,100,VALID,0.0169808,VALID,20.8711,VALID,9,VALID,0
2009-03-03, 01:55:00,VALID,915.48,VALID,0,VALID,100,VALID,0.0509425,VALID,20.8676,VALID,19,VALID,0
2009-03-03, 01:56:00,VALID,915.456,VALID,0,VALID,100,VALID,0.0339617,VALID,20.8646,VALID,19,VALID,0
2009-03-03, 01:57:00,VALID,915.459,VALID,0,VALID,100,VALID,0.0339617,VALID,20.8773,VALID,22,VALID,0
2009-03-03, 01:58:00,VALID,915.427,VALID,0,VALID,100,VALID,0.0169808,VALID,20.8776,VALID,21,VALID,0
2009-03-03, 01:59:00,VALID,915.394,VALID,0,VALID,100,VALID,0.0339617,VALID,20.884,VALID,21,VALID,0
2009-03-03, 02:00:00,VALID,915.359,VALID,0,VALID,100,VALID,0.0169808,VALID,20.8708,VALID,21,VALID,0
2009-03-03, 02:01:00,VALID,915.312,VALID,0,VALID,100,VALID,0.0509425,VALID,20.8611,VALID,28,VALID,0
2009-03-03, 02:02:00,VALID,915.287,VALID,0,VALID,100,VALID,0,VALID,20.8743,VALID,32,VALID,0
2009-03-03, 02:03:00,VALID,915.26,VALID,0,VALID,100,VALID,0.0339617,VALID,20.8708,VALID,32,VALID,0
2009-03-03, 02:04:00,VALID,915.223,VALID,0,VALID,100,VALID,0,VALID,20.8678,VALID,32,VALID,0
2009-03-03, 02:05:00,VALID,915.171,VALID,0,VALID,100,VALID,0,VALID,20.8713,VALID,32,VALID,0
2009-03-03, 02:06:00,VALID,915.147,VALID,0,VALID,100,VALID,0.0169808,VALID,20.8908,VALID,32,VALID,0
2009-03-03, 02:07:00,VALID,915.118,VALID,0,VALID,100,VALID,0.0169808,VALID,20.8873,VALID,32,VALID,0
2009-03-03, 02:08:00,VALID,915.119,VALID,0,VALID,100,VALID,0,VALID,20.8984,VALID,25,VALID,0
2009-03-03, 02:09:00,VALID,915.094,VALID,0,VALID,100,VALID,-0.0339617,VALID,20.9051,VALID,239,VALID,0
2009-03-03, 02:10:00,VALID,915.079,VALID,0,VALID,100,VALID,-0.0679233,VALID,20.9116,VALID,311,VALID,0
2009-03-03, 02:11:00,VALID,915.07,VALID,0,VALID,100,VALID,-0.0849042,VALID,20.9213,VALID,15,VALID,0
2009-03-03, 02:12:00,VALID,915.039,VALID,0,VALID,100,VALID,-0.0509425,VALID,20.9116,VALID,21,VALID,0
2009-03-03, 02:13:00,VALID,915.05,VALID,0,VALID,100,VALID,-0.0339617,VALID,20.9116,VALID,29,VALID,0
2009-03-03, 02:14:00,VALID,915.048,VALID,0,VALID,100,VALID,-0.0339617,VALID,20.8951,VALID,29,VALID,0
2009-03-03, 02:15:00,VALID,915.021,VALID,0,VALID,100,VALID,-0.0849042,VALID,20.8891,VALID,29,VALID,0
2009-03-03, 02:16:00,VALID,914.99,VALID,0,VALID,100,VALID,-0.0509425,VALID,20.8759,VALID,29,VALID,0
2009-03-03, 02:17:00,VALID,914.942,VALID,0,VALID,100,VALID,-0.0679233,VALID,20.8821,VALID,29,VALID,0
2009-03-03, 02:18:00,VALID,914.918,VALID,0,VALID,100,VALID,-0.0169808,VALID,20.9084,VALID,29,VALID,0
2009-03-03, 02:19:00,VALID,914.902,VALID,0,VALID,100,VALID,-0.0509425,VALID,20.9081,VALID,29,VALID,0
2009-03-03, 02:20:00,VALID,914.908,VALID,0,VALID,100,VALID,-0.0509425,VALID,20.9148,VALID,29,VALID,0
2009-03-03, 02:21:00,VALID,914.888,VALID,0,VALID,100,VALID,-0.0339617,VALID,20.9313,VALID,29,VALID,0
2009-03-03, 02:22:00,VALID,914.888,VALID,0,VALID,100,VALID,-0.0339617,VALID,20.9243,VALID,29,VALID,0
2009-03-03, 02:23:00,VALID,914.866,VALID,0,VALID,100,VALID,-0.0339617,VALID,20.9243,VALID,29,VALID,0
2009-03-03, 02:24:00,VALID,914.847,VALID,0,VALID,100,VALID,-0.0169808,VALID,20.9178,VALID,31,VALID,0
2009-03-03, 02:25:00,VALID,914.817,VALID,0,VALID,100,VALID,0,VALID,20.8886,VALID,49,VALID,0
2009-03-03, 02:26:00,VALID,914.824,VALID,0,VALID,100,VALID,-0.0339617,VALID,20.8599,VALID,49,VALID,0
2009-03-03, 02:27:00,VALID,914.819,VALID,0,VALID,100,VALID,-0.0679233,VALID,20.8145,VALID,49,VALID,0
2009-03-03, 02:28:00,VALID,914.797,VALID,0,VALID,100,VALID,-0.0169808,VALID,20.7623,VALID,49,VALID,0
2009-03-03, 02:29:00,VALID,914.772,VALID,0,VALID,100,VALID,-0.0679233,VALID,20.7361,VALID,49,VALID,0
2009-03-03, 02:30:00,VALID,914.771,VALID,0,VALID,100,VALID,-0.0509425,VALID,20.7166,VALID,49,VALID,0
2009-03-03, 02:31:00,VALID,914.768,VALID,0,VALID,100,VALID,-0.0849042,VALID,20.6939,VALID,49,VALID,0
2009-03-03, 02:32:00,VALID,914.789,VALID,0,VALID,100,VALID,-0.0169808,VALID,20.6871,VALID,49,VALID,0
2009-03-03, 02:33:00,VALID,914.802,VALID,0,VALID,100,VALID,-0.0849042,VALID,20.6814,VALID,49,VALID,0
2009-03-03, 02:34:00,VALID,914.817,VALID,0,VALID,100,VALID,-0.0339617,VALID,20.6709,VALID,49,VALID,0
2009-03-03, 02:35:00,VALID,914.8,VALID,0,VALID,100,VALID,-0.0679233,VALID,20.6846,VALID,49,VALID,0
2009-03-03, 02:36:00,VALID,914.81,VALID,0,VALID,100,VALID,-0.0509425,VALID,20.6874,VALID,49,VALID,0
2009-03-03, 02:37:00,VALID,914.822,VALID,0,VALID,100,VALID,0,VALID,20.7001,VALID,49,VALID,0
2009-03-03, 02:38:00,VALID,914.821,VALID,0,VALID,100,VALID,-0.0169808,VALID,20.6841,VALID,49,VALID,0
2009-03-03, 02:39:00,VALID,914.822,VALID,0,VALID,100,VALID,-0.0509425,VALID,20.6746,VALID,50,VALID,0
2009-03-03, 02:40:00,VALID,914.808,VALID,0,VALID,100,VALID,-0.0339617,VALID,20.6752,VALID,50,VALID,0
2009-03-03, 02:41:00,VALID,914.781,VALID,0,VALID,100,VALID,-0.0339617,VALID,20.6487,VALID,58,VALID,0
2009-03-03, 02:42:00,VALID,914.759,VALID,0,VALID,100,VALID,-0.0509425,VALID,20.6257,VALID,65,VALID,0
2009-03-03, 02:43:00,VALID,914.759,VALID,0,VALID,100,VALID,0,VALID,20.6127,VALID,60,VALID,0
2009-03-03, 02:44:00,VALID,914.745,VALID,0,VALID,100,VALID,-0.0169808,VALID,20.6095,VALID,61,VALID,0
2009-03-03, 02:45:00,VALID,914.767,VALID,0,VALID,100,VALID,-0.0169808,VALID,20.603,VALID,61,VALID,0
2009-03-03, 02:46:00,VALID,914.79,VALID,0,VALID,100,VALID,-0.0169808,VALID,20.5965,VALID,122,VALID,0
2009-03-03, 02:47:00,VALID,914.804,VALID,0,VALID,100,VALID,-0.0339617,VALID,20.5838,VALID,163,VALID,0
2009-03-03, 02:48:00,VALID,914.816,VALID,0,VALID,100,VALID,-0.0509425,VALID,20.574,VALID,163,VALID,0
2009-03-03, 02:49:00,VALID,914.825,VALID,0,VALID,100,VALID,-0.0339617,VALID,20.5575,VALID,163,VALID,0
2009-03-03, 02:50:00,VALID,914.837,VALID,0,VALID,100,VALID,0,VALID,20.5675,VALID,165,VALID,0
2009-03-03, 02:51:01,VALID,914.852,VALID,0,VALID,100,VALID,-0.0339617,VALID,20.5803,VALID,167,VALID,0
2009-03-03, 02:52:00,VALID,914.848,VALID,0,VALID,100,VALID,-0.0169808,VALID,20.5997,VALID,172,VALID,0
2009-03-03, 02:53:00,VALID,914.826,VALID,0,VALID,100,VALID,-0.0169808,VALID,20.6095,VALID,172,VALID,0
2009-03-03, 02:54:00,VALID,914.787,VALID,0,VALID,100,VALID,-0.0339617,VALID,20.6254,VALID,172,VALID,0
2009-03-03, 02:55:00,VALID,914.766,VALID,0,VALID,100,VALID,-0.0679233,VALID,20.6614,VALID,172,VALID,0
2009-03-03, 02:56:00,VALID,914.779,VALID,0,VALID,100,VALID,-0.0169808,VALID,20.6811,VALID,172,VALID,0
2009-03-03, 02:57:00,VALID,914.793,VALID,0,VALID,100,VALID,-0.0169808,VALID,20.6936,VALID,172,VALID,0
2009-03-03, 02:58:00,VALID,914.809,VALID,0,VALID,100,VALID,-0.0169808,VALID,20.6974,VALID,172,VALID,0
2009-03-03, 02:59:00,VALID,914.83,VALID,0,VALID,100,VALID,-0.0339617,VALID,20.7004,VALID,172,VALID,0
2009-03-03, 03:00:00,VALID,914.838,VALID,0,VALID,100,VALID,-0.0339617,VALID,20.7136,VALID,172,VALID,0
2009-03-03, 03:01:01,VALID,914.838,VALID,0,VALID,100,VALID,-0.0169808,VALID,20.7293,VALID,172,VALID,0
2009-03-03, 03:02:01,VALID,914.84,VALID,0,VALID,100,VALID,-0.0339617,VALID,20.7328,VALID,172,VALID,0
2009-03-03, 03:03:00,VALID,914.857,VALID,0,VALID,100,VALID,-0.0169808,VALID,20.7425,VALID,172,VALID,0
2009-03-03, 03:04:00,VALID,914.888,VALID,0,VALID,100,VALID,0,VALID,20.749,VALID,172,VALID,0
2009-03-03, 03:05:00,VALID,914.925,VALID,0,VALID,100,VALID,-0.0509425,VALID,20.772,VALID,172,VALID,0
2009-03-03, 03:06:00,VALID,914.958,VALID,0,VALID,100,VALID,-0.0509425,VALID,20.7685,VALID,43,VALID,0
2009-03-03, 03:07:00,VALID,914.978,VALID,0,VALID,100,VALID,-0.0339617,VALID,20.7555,VALID,28,VALID,0.0362216
2009-03-03, 03:08:00,VALID,915.001,VALID,0,VALID,100,VALID,-0.0509425,VALID,20.7588,VALID,32,VALID,0
2009-03-03, 03:09:00,VALID,915.012,VALID,0,VALID,100,VALID,-0.0849042,VALID,20.759,VALID,33,VALID,0
2009-03-03, 03:10:00,VALID,915.012,VALID,0,VALID,100,VALID,-0.0169808,VALID,20.7393,VALID,45,VALID,0
2009-03-03, 03:11:01,VALID,915.008,VALID,0,VALID,100,VALID,-0.0679233,VALID,20.6939,VALID,45,VALID,0
2009-03-03, 03:12:00,VALID,915.012,VALID,0,VALID,100,VALID,-0.0339617,VALID,20.6711,VALID,45,VALID,0
2009-03-03, 03:13:00,VALID,914.988,VALID,0,VALID,100,VALID,-0.0339617,VALID,20.6384,VALID,45,VALID,0
2009-03-03, 03:14:01,VALID,914.98,VALID,0,VALID,100,VALID,0,VALID,20.5995,VALID,51,VALID,0
2009-03-03, 03:15:00,VALID,914.96,VALID,0,VALID,100,VALID,-0.0339617,VALID,20.5543,VALID,59,VALID,0.0513139
2009-03-03, 03:16:00,VALID,914.948,VALID,0,VALID,100,VALID,-0.0679233,VALID,20.5061,VALID,58,VALID,0
2009-03-03, 03:17:00,VALID,914.943,VALID,0,VALID,100,VALID,-0.0679233,VALID,20.4764,VALID,58,VALID,0
2009-03-03, 03:18:00,VALID,914.941,VALID,0,VALID,100,VALID,-0.0169808,VALID,20.4694,VALID,58,VALID,0
2009-03-03, 03:19:00,VALID,914.942,VALID,0,VALID,100,VALID,-0.0339617,VALID,20.4694,VALID,57,VALID,0
2009-03-03, 03:20:01,VALID,914.946,VALID,0,VALID,100,VALID,0,VALID,20.4756,VALID,56,VALID,0
2009-03-03, 03:21:01,VALID,914.959,VALID,0,VALID,100,VALID,0,VALID,20.5054,VALID,32,VALID,0
2009-03-03, 03:22:00,VALID,914.984,VALID,0,VALID,100,VALID,-0.0339617,VALID,20.4859,VALID,17,VALID,0
2009-03-03, 03:23:00,VALID,915.014,VALID,0,VALID,100,VALID,-0.0339617,VALID,20.4794,VALID,11,VALID,0
2009-03-03, 03:24:01,VALID,915.035,VALID,0,VALID,100,VALID,-0.0169808,VALID,20.4756,VALID,11,VALID,0
2009-03-03, 03:25:01,VALID,915.049,VALID,0,VALID,100,VALID,0,VALID,20.4886,VALID,11,VALID,0
2009-03-03, 03:26:00,VALID,915.035,VALID,0,VALID,100,VALID,0,VALID,20.4956,VALID,26,VALID,0
2009-03-03, 03:27:00,VALID,915.038,VALID,0,VALID,100,VALID,0.0169808,VALID,20.4921,VALID,42,VALID,0
2009-03-03, 03:28:00,VALID,915.032,VALID,0,VALID,100,VALID,0,VALID,20.4786,VALID,61,VALID,0
2009-03-03, 03:29:00,VALID,915.025,VALID,0,VALID,100,VALID,0,VALID,20.4502,VALID,76,VALID,0
2009-03-03, 03:30:00,VALID,915.007,VALID,0,VALID,100,VALID,0,VALID,20.4105,VALID,76,VALID,0
2009-03-03, 03:31:01,VALID,915.009,VALID,0,VALID,100,VALID,-0.0339617,VALID,20.4042,VALID,60,VALID,0
2009-03-03, 03:32:01,VALID,915.003,VALID,0,VALID,100,VALID,0,VALID,20.3977,VALID,31,VALID,0
2009-03-03, 03:33:01,VALID,915.01,VALID,0,VALID,100,VALID,-0.0169808,VALID,20.3842,VALID,24,VALID,0
2009-03-03, 03:34:01,VALID,915.008,VALID,0,VALID,100,VALID,0,VALID,20.3815,VALID,18,VALID,0
2009-03-03, 03:35:01,VALID,915.026,VALID,0,VALID,100,VALID,0,VALID,20.3618,VALID,13,VALID,0
2009-03-03, 03:36:01,VALID,915.038,VALID,0,VALID,100,VALID,0,VALID,20.3558,VALID,353,VALID,0
2009-03-03, 03:37:01,VALID,915.048,VALID,0,VALID,100,VALID,-0.0169808,VALID,20.3488,VALID,4,VALID,0
2009-03-03, 03:38:01,VALID,915.046,VALID,0,VALID,100,VALID,0,VALID,20.3526,VALID,7,VALID,0.0589489
2009-03-03, 03:39:01,VALID,915.045,VALID,0,VALID,100,VALID,-0.0339617,VALID,20.3393,VALID,12,VALID,0.0759943
2009-03-03, 03:40:01,VALID,915.035,VALID,0,VALID,100,VALID,-0.0169808,VALID,20.3231,VALID,9,VALID,0.00167411
2009-03-03, 03:41:01,VALID,915.028,VALID,0,VALID,100,VALID,0,VALID,20.3131,VALID,13,VALID,0.119004
2009-03-03, 03:42:01,VALID,915.034,VALID,0,VALID,100,VALID,-0.0169808,VALID,20.3161,VALID,12,VALID,0.104514
2009-03-03, 03:43:01,VALID,915.046,VALID,0,VALID,100,VALID,-0.0339617,VALID,20.3201,VALID,5,VALID,0.49673
2009-03-03, 03:44:01,VALID,915.05,VALID,0,VALID,100,VALID,-0.0169808,VALID,20.3099,VALID,353,VALID,0.0458333
2009-03-03, 03:45:01,VALID,915.064,VALID,0,VALID,100,VALID,-0.0339617,VALID,20.3096,VALID,343,VALID,0.00260417
2009-03-03, 03:46:00,VALID,915.063,VALID,0,VALID,100,VALID,0,VALID,20.3269,VALID,356,VALID,0
2009-03-03, 03:47:00,VALID,915.072,VALID,0,VALID,100,VALID,0.0169808,VALID,20.3261,VALID,1,VALID,0.000186012
2009-03-03, 03:48:00,VALID,915.063,VALID,0,VALID,100,VALID,0,VALID,20.3231,VALID,360,VALID,0.000887784
2009-03-03, 03:49:00,VALID,915.058,VALID,0,VALID,100,VALID,0,VALID,20.3204,VALID,345,VALID,0
2009-03-03, 03:50:00,VALID,915.061,VALID,0,VALID,100,VALID,-0.0169808,VALID,20.3166,VALID,355,VALID,0
2009-03-03, 03:51:00,VALID,915.071,VALID,0,VALID,100,VALID,0,VALID,20.3269,VALID,19,VALID,0.1516
2009-03-03, 03:52:00,VALID,915.103,VALID,0,VALID,100,VALID,-0.0339617,VALID,20.3134,VALID,358,VALID,0.0405506
2009-03-03, 03:53:00,VALID,915.148,VALID,0,VALID,100,VALID,-0.0679233,VALID,20.3041,VALID,2,VALID,0
2009-03-03, 03:54:00,VALID,915.144,VALID,0,VALID,100,VALID,-0.0169808,VALID,20.2934,VALID,32,VALID,0.0523256